This demonstration page uses our WeatherBlox Daily Observations layout. Learn more.

38.89511, -77.03637

Hourly Observations for December 5, 2016

Temp ( °F °C ) Dew Point ( °F °C ) Humidity (%) Winds ( mph kmh ) Pressure ( in mb ) Visibility ( mi km ) Precip ( " mm )
12:06 am 00:06 Cloudy with Light Rain 39 4 39 4 100 100 S 12 19 30.09 1019 5 8.0467 0 0
12:14 am 00:14 Cloudy with Light Rain 39 4 39 4 100 100 SSE 12 19 30.06 1018 5 8.0467 0 0
12:37 am 00:37 Cloudy with Light Rain 40 4.4 39 3.9 97 97 S 12 19 30.06 1018 3 4.82802 0.02 0.508
12:52 am 00:52 Cloudy with Light Rain 40 4.4 39 3.9 97 97 S 13 20 30.06 1018 4 6.43736 0.03 0.762
1:35 am 01:35 Cloudy with Light Rain 41 5 40 4.4 96 96 SSW 7 11 30.06 1018 4 6.43736 0.05 1.27
1:52 am 01:52 Cloudy with Rain 40 4.4 39 3.9 97 97 SSW 9 15 30.06 1018 4 6.43736 0.07 1.778
2:00 am 02:00 Cloudy with Light Rain 39 4 39 4 100 100 SSW 9 15 30.06 1018 4 6.43736 0 0
2:26 am 02:26 Cloudy with Light Rain 39 4 39 4 100 100 SSW 10 17 30.06 1018 5 8.0467 0 0
2:52 am 02:52 Cloudy with Light Rain 41 5 39 3.9 93 93 S 14 22 30.05 1018 4 6.43736 0.05 1.27
3:29 am 03:29 Cloudy with Light Rain 41 5 40 4.4 96 96 S 10 17 30.03 1017 6 9.65604 0.02 0.508
3:49 am 03:49 Cloudy with Light Rain 41 5 39 4 93 93 S 14 22 30.03 1017 7 11.26538 0.03 0.762
3:52 am 03:52 Cloudy 41 5 40 4.4 96 96 S 13 20 30.03 1017 7 11.26538 0.03 0.762
4:04 am 04:04 Cloudy with Light Rain 41 5 39 4 93 93 S 12 19 30.03 1017 7 11.26538 0 0
4:52 am 04:52 Cloudy 41 5 40 4.4 96 96 S 12 19 30.01 1016 10 16.0934 0 0.0254
5:05 am 05:05 Cloudy 42 5.6 40 4.4 92 92 SSW 10 17 30 1016 10 16.0934 0 0
5:52 am 05:52 Cloudy 42 5.6 41 5 96 96 SSW 8 13 30.01 1016 10 16.0934 0 0
6:52 am 06:52 Cloudy 42 5.6 41 5 96 96 SW 6 9 30.01 1016 10 16.0934 0 0
7:52 am 07:52 Cloudy 43 6.1 41 5 93 93 SW 5 7 30.01 1016 10 16.0934 0 0
8:20 am 08:20 Cloudy 43 6 39 4 87 87 WSW 6 9 30.03 1017 10 16.0934 0 0
8:52 am 08:52 Cloudy 44 6.7 41 5 89 89 WSW 6 9 30.03 1017 10 16.0934 0 0
9:06 am 09:06 Cloudy 45 7 41 5 87 87 WSW 6 9 30.03 1017 10 16.0934 0 0
9:40 am 09:40 Mostly Cloudy 45 7 39 4 81 81 W 5 7 30.03 1017 10 16.0934 0 0
9:52 am 09:52 Mostly Cloudy 46 7.8 41 5 83 83 WSW 3 6 30.04 1017 10 16.0934 0 0
10:10 am 10:10 Partly Cloudy 46 8 43 6 87 87 VRB 3 6 30.03 1017 10 16.0934 0 0
10:52 am 10:52 Mostly Sunny 47 8.3 42 5.6 83 83 VRB 5 7 30.04 1017 10 16.0934 0 0
11:52 am 11:52 Mostly Sunny 53 11.7 43 6.1 69 69 NW 10 17 30.02 1017 10 16.0934 0 0
12:52 pm 12:52 Partly Cloudy 55 12.8 38 3.3 53 53 NNW 14 22 30.02 1017 10 16.0934 0 0
1:52 pm 13:52 Mostly Cloudy 56 13.3 37 2.8 49 49 NNW 12 19 30.03 1017 10 16.0934 0 0
2:52 pm 14:52 Mostly Cloudy 56 13.3 37 2.8 49 49 N 8 13 30.04 1017 10 16.0934 0 0
3:52 pm 15:52 Mostly Cloudy 55 12.8 37 2.8 51 51 N 7 11 30.04 1017 10 16.0934 0 0
4:52 pm 16:52 Clear 51 10.6 36 2.2 56 56 NNW 9 15 30.05 1018 10 16.0934 0 0
5:52 pm 17:52 Mostly Cloudy 51 10.6 36 2.2 56 56 N 6 9 30.06 1018 10 16.0934 0 0
6:52 pm 18:52 Mostly Cloudy 50 10 36 2.2 59 59 N 6 9 30.08 1019 10 16.0934 0 0
7:52 pm 19:52 Mostly Cloudy 50 10 36 2.2 59 59 N 8 13 30.1 1019 10 16.0934 0 0
8:52 pm 20:52 Mostly Cloudy 48 8.9 35 1.7 61 61 NNE 10 17 30.11 1020 10 16.0934 0 0
9:52 pm 21:52 Mostly Cloudy 47 8.3 35 1.7 63 63 NNE 7 11 30.12 1020 10 16.0934 0 0
10:52 pm 22:52 Cloudy 46 7.8 33 0.6 61 61 NNE 8 13 30.14 1021 10 16.0934 0 0
11:52 pm 23:52 Cloudy 46 8 34 1 62 62 NNE 8 13 30.15 1021 10 16.0934 0 0

Powered by AerisWeather